CAPE
0 0 0 0 0 5 46 50 16 7 3 22 27 0 28 0 0 0 3 23 70 154 517 1157 1198 1575 1505 1195 1148 975 998 1009 1171 1507 1668 1766 1554 1916 1964 2138 2271 2385 2453 2349
0 0 0 0 0 0 0 0 0 0 0 0 0 54 22 0 11 10 0 0 0 57 253 562 932 1575 1833 1544 1470 1216 1275 1168 1183 1563 1774 1746 1708 1874 2094 2183 2330 2475 2404 2468
21 1 0 0 0 0 0 0 0 0 0 0 0 0 20 80 96 84 73 26 53 85 62 193 566 1076 1556 1867 1611 1587 1562 1593 1441 1671 1839 1836 1871 1987 2178 2251 2352 2515 2566 2554
20 9 4 0 0 0 0 0 0 0 0 0 0 0 2 614 290 160 181 161 201 297 300 282 333 631 978 1560 1932 1827 1830 2075 1739 2017 2054 2090 2164 2231 2383 2492 2364 2539 2611 2644
35 19 5 0 35 84 2 0 5 4 0 0 0 0 0 29 329 382 403 434 394 363 344 454 628 384 456 1163 2124 2032 2320 2035 2262 2103 2417 2491 2433 2493 2684 2690 2661 2615 2774 2792
31 23 11 4 92 1 14 0 57 138 3 3 5 11 8 160 53 96 200 433 647 733 736 825 942 977 888 611 1525 2287 2364 2313 2462 2373 2628 2750 2815 2870 2911 2842 2826 2506 2667 3010
3 39 38 184 30 0 0 0 0 16 27 84 73 210 80 0 0 0 2 301 495 1229 1298 1422 1594 1336 1225 693 1145 2037 2384 2538 2810 2697 2812 3007 3129 3145 3176 3137 2558 2938 2780 2936
42 74 24 160 21 0 0 0 0 2 0 1 3 0 0 0 0 0 0 0 68 1512 1890 1768 1693 1714 1817 1543 1095 1959 2286 2558 2775 2937 2719 2757 3148 3263 3250 3217 3100 3299 3169 3227
64 34 201 51 9 12 0 0 1 15 3 5 2 0 0 0 0 0 0 0 2 819 2522 2318 1611 1050 1576 1411 1739 2193 2449 2660 2782 2937 3018 2827 3143 3350 3193 3220 2776 2730 2864 2653
1 26 3 2 2 1 0 0 1 20 11 6 9 5 0 0 0 1 0 0 2 77 687 1438 1624 2078 2029 2171 2176 2573 2632 2763 2860 2913 3010 2897 3020 3151 2916 2750 2729 2611 2510 2443
0 1 0 2 6 7 2 5 26 24 3 2 2 12 0 0 0 13 3 4 2 3 4 4 32 428 915 1845 2355 2331 2666 2653 2754 2712 2713 2877 2927 2828 2747 2720 2473 2605 2255 1925
0 1 3 3 7 8 5 28 15 8 3 3 3 5 1 0 1 35 3 11 0 1 0 1 0 0 18 420 1875 2411 2583 2692 2671 2598 2776 2806 2813 2105 806 1295 1276 1470 1384 1842
3 5 2 7 10 12 8 28 14 1 2 6 3 5 0 0 25 12 13 0 19 7 0 0 2 0 0 0 492 2226 2481 2775 2850 2710 2911 3013 2897 2673 2380 1247 1096 1294 1615 1886
3 1 3 6 6 10 15 21 7 3 1 3 2 8 7 15 0 0 0 4 11 1 0 0 0 0 0 0 0 789 2022 2395 2684 2622 2875 3039 3022 2894 2725 2471 1981 2008 1138 1352
10 6 10 17 11 12 9 14 9 4 2 3 1 1 1 4 9 7 1 0 3 1 0 0 0 0 0 0 0 108 587 1082 1804 1984 2537 2259 1376 970 703 498 590 464 844 777
19 8 6 4 7 8 12 5 5 3 3 3 4 3 2 2 0 0 3 2 4 4 3 0 0 0 0 0 0 0 103 335 852 1219 830 902 810 847 615 345 105 0 8 301
11 18 10 10 4 9 8 9 8 7 4 4 5 4 3 1 4 2 0 2 4 4 3 3 1 0 0 0 0 0 0 123 459 1140 1542 777 1134 541 707 929 1684 1103 606 710
13 15 17 21 20 11 12 1 1 3 4 6 5 3 2 3 1 3 2 4 4 4 3 3 0 0 0 1 0 0 0 0 26 869 1048 1375 1391 1111 494 1319 1763 1496 965 384
5 8 8 8 9 15 19 17 0 0 0 4 6 4 1 2 1 3 5 1 2 4 3 4 2 0 0 0 0 0 0 0 0 407 584 654 846 781 730 941 1150 981 533 328
33 8 6 12 5 8 15 8 2 1 0 9 14 13 14 15 16 4 1 4 2 4 6 5 5 3 3 0 0 0 0 0 1 75 278 225 145 204 95 15 21 56 29 189
28 21 4 6 11 10 8 7 12 6 3 0 4 1 4 1 13 6 2 2 1 6 2 4 4 4 3 1 0 0 0 2 0 0 1 1 0 0 0 0 0 0 0 0
31 30 12 2 11 7 7 8 11 14 10 6 1 11 9 8 7 5 2 2 4 4 1 3 3 5 3 3 3 5 6 6 6 6 4 2 4 2 0 0 1 0 0 0
48 45 24 11 10 12 14 12 10 16 18 18 13 6 4 8 6 10 1 2 4 4 5 6 8 5 3 2 2 3 4 5 8 9 9 9 9 7 6 6 2 0 0 0
29 49 39 40 15 18 20 13 10 12 13 8 17 20 8 10 4 8 1 0 0 1 4 5 3 5 3 2 2 2 3 3 2 2 3 3 4 3 4 4 5 0 0 0
85 39 30 20 25 15 12 5 8 10 13 6 9 13 4 13 16 15 11 1 0 0 0 0 3 3 3 1 1 3 2 2 1 1 1 1 2 2 1 1 1 1 0 0
81 49 19 6 0 8 17 10 12 10 12 20 13 14 9 12 22 19 13 15 12 1 12 9 7 6 5 4 4 2 0 0 1 2 1 0 0 0 1 1 1 0 1 1
73 6 72 33 7 6 1 0 12 11 1 3 17 30 18 23 17 14 5 12 8 7 3 1 2 1 0 1 2 7 2 0 0 0 2 1 0 1 3 1 0 0 0 1
CIN
0 0 0 0 0 -2 -8 -6 -15 -10 -23 -14 -9 -13 -3 0 0 0 -5 -4 -4 -4 -5 -8 -43 -62 -102 -106 -120 -139 -151 -168 -173 -136 -93 -62 -68 -38 -42 -25 -31 -38 -32 -22
0 0 0 0 0 0 0 0 0 0 0 0 0 -30 -5 0 -7 -3 0 0 0 -8 -8 -24 -45 -54 -85 -106 -111 -135 -142 -196 -166 -122 -98 -103 -96 -62 -44 -34 -28 -34 -34 -30
-7 -6 0 0 0 0 0 0 0 0 0 0 0 0 -16 -3 -3 -5 -6 -3 -12 -48 -72 -47 -56 -75 -77 -114 -99 -93 -126 -124 -134 -130 -128 -122 -99 -68 -55 -49 -38 -33 -39 -31
-4 -13 -17 0 0 0 0 0 0 0 0 0 0 0 -24 -7 -44 -40 -43 -76 -84 -100 -104 -120 -100 -58 -84 -74 -121 -121 -136 -105 -132 -101 -123 -107 -81 -72 -63 -51 -55 -46 -46 -44
-3 -5 -6 -7 -16 -37 -14 0 -30 -4 0 0 0 0 -1 -29 -34 -49 -70 -98 -144 -167 -184 -190 -166 -137 -105 -100 -102 -140 -130 -168 -146 -145 -94 -77 -78 -66 -45 -46 -49 -51 -52 -55
-3 -7 -5 -8 -37 -219 -118 -2 -10 -8 -2 0 -27 -47 -5 -47 -111 -143 -149 -142 -158 -179 -199 -192 -223 -195 -126 -143 -125 -177 -185 -217 -160 -139 -96 -99 -81 -50 -54 -64 -69 -65 -58 -50
-4 -3 -5 -19 -95 0 -13 0 0 -51 -12 -3 -7 -8 -38 0 0 0 -205 -204 -232 -140 -143 -153 -163 -185 -175 -171 -140 -194 -191 -141 -120 -127 -97 -75 -55 -51 -44 -58 -63 -62 -44 -49
-3 -3 -3 -39 -47 0 0 0 0 -1 -2 -41 -29 0 0 0 0 0 0 0 -425 -116 -47 -100 -95 -127 -151 -177 -175 -159 -169 -155 -136 -113 -107 -79 -50 -52 -54 -37 -40 -24 -37 -23
-2 -2 -8 -45 0 -28 0 0 0 0 0 0 -1 -1 0 0 0 0 0 0 0 -200 -13 -20 -60 -107 -139 -201 -126 -144 -151 -154 -136 -107 -85 -61 -65 -51 -49 -41 -48 -57 -29 -43
-10 -7 0 0 0 0 0 0 0 0 0 -1 0 -1 0 0 0 0 0 0 0 -362 -199 -105 -143 -134 -49 -56 -90 -95 -104 -114 -103 -104 -93 -75 -79 -60 -57 -64 -60 -29 -38 -25
0 0 0 0 0 0 -1 0 -1 0 -6 0 0 0 0 0 0 0 -2 -3 0 0 0 0 -256 -334 -264 -126 -49 -82 -71 -97 -113 -126 -120 -87 -71 -67 -72 -43 -51 -37 -16 -39
0 0 0 0 0 -1 0 0 0 0 0 0 0 0 0 0 -3 0 -5 -1 0 -1 0 0 0 0 -158 -374 -75 -29 -43 -67 -97 -97 -98 -76 -71 -165 -436 -295 -276 -214 -259 -158
0 0 0 0 0 0 0 0 -1 -11 0 0 0 0 0 0 0 -4 -1 -1 -1 -2 0 0 0 0 0 -5 -308 -10 -8 -13 -24 -35 -47 -47 -64 -82 -106 -342 -368 -316 -235 -207
0 0 0 0 0 0 0 0 0 0 0 0 0 0 -1 -3 0 0 0 -2 -2 -1 0 0 0 0 0 0 0 -173 -18 -42 -8 -9 -13 -16 -13 -35 -47 -98 -143 -132 -320 -287
-2 0 0 0 0 0 0 -1 0 0 0 0 0 0 0 0 0 0 -1 0 -2 -1 0 0 0 0 0 0 0 -412 -208 -120 -46 -51 -18 -62 -169 -236 -245 -333 -330 -332 -375 -473
-2 -2 -1 -1 0 0 0 0 0 0 0 0 0 0 0 0 0 0 0 0 0 0 0 0 0 0 0 0 0 0 -394 -255 -122 -87 -191 -185 -245 -240 -250 -225 -355 0 -281 -237
-1 0 -2 -1 -2 -1 0 0 0 0 0 0 0 0 0 0 0 0 0 0 0 0 0 0 0 0 0 0 0 0 0 -215 -97 -21 -29 -139 -61 -295 -234 -198 -109 -198 -333 -346
-1 -1 -1 -1 -1 -2 0 0 0 0 0 0 0 0 0 0 0 0 0 0 0 0 0 0 0 0 0 -1 0 0 0 0 -117 -27 -24 -2 -2 -121 -216 -20 -15 -82 -399 -471
-5 -3 -1 -6 -1 -1 -1 -1 0 0 0 0 0 0 0 0 0 0 0 0 0 0 0 -1 0 0 0 0 0 0 0 0 0 -16 -62 -62 -20 -41 -26 -26 -56 -152 -275 -342
0 -2 -3 -2 -2 -1 -1 -2 -2 -3 0 -1 0 0 0 0 -1 0 0 0 0 0 0 0 0 -1 0 0 0 0 0 0 -1 -22 -77 -160 -240 -230 -356 -584 -668 -493 -169 -323
-1 -2 -20 -3 -2 -1 -2 -2 -1 -3 -10 -1 -1 -3 -3 -6 0 0 0 0 0 0 0 0 0 0 0 0 0 0 0 -6 0 0 0 -1 -1 0 0 0 0 0 0 0
-1 -2 -11 -18 -2 -4 -3 -2 -2 -2 -4 -5 -5 -1 -1 -1 -1 -1 0 0 0 0 0 0 0 0 0 0 0 0 0 0 0 0 0 0 0 0 0 0 0 0 0 0
-3 -1 -2 -4 -4 -2 -2 -2 -3 -2 -2 -2 -1 -7 -1 -1 -6 -1 0 0 0 0 0 0 0 0 0 0 0 0 0 0 0 0 0 0 0 0 0 0 0 0 0 0
-10 -2 -1 -2 -3 -1 -1 -2 -3 -3 -3 -1 -3 -3 -4 -3 -6 -4 -27 0 0 0 0 0 0 0 0 0 0 0 0 0 0 0 0 0 0 0 0 0 0 0 0 0
-2 -3 -22 -2 -2 -4 -3 -4 -7 -5 -6 -4 -3 -4 -6 -9 -2 -2 -3 -3 0 0 0 0 -2 0 -1 0 0 0 0 0 0 0 0 0 0 0 0 0 0 0 0 0
-6 -5 -23 -8 0 -5 -5 -6 -6 -5 -6 -3 -6 -6 -6 -4 -3 -3 -3 -1 -2 -3 -1 -1 -1 -1 -2 -2 -1 -1 0 0 0 0 0 0 0 0 0 0 0 0 0 0
-3 -3 -3 -15 -17 -8 -2 0 -6 -6 -1 -5 -7 -5 -7 -4 -4 -4 -6 -3 -3 -2 -3 -4 -2 -1 -1 -1 -2 -1 -2 0 0 0 0 0 0 0 0 0 0 0 0 -1
Wind_Speed
39 39 35 37 38 40 46 45 51 52 50 45 37 26 21 21 26 31 30 31 34 28 21 21 19 20 19 18 19 21 19 19 21 20 21 22 22 20 19 18 16 16 17 16
42 37 37 41 42 43 47 49 49 52 52 40 32 35 30 26 26 21 27 26 28 29 26 24 22 20 18 19 21 23 19 21 18 19 20 21 21 21 20 19 17 17 16 15
45 38 39 47 44 44 48 49 52 57 51 40 38 29 33 32 29 25 27 28 27 29 29 28 25 23 20 18 19 19 23 18 18 18 20 20 20 21 21 20 20 19 18 17
41 40 47 40 36 40 49 49 49 54 57 51 45 36 33 26 30 30 29 31 31 31 32 32 31 26 24 19 19 21 21 19 18 18 19 19 20 20 21 21 21 20 20 19
40 42 41 41 30 31 34 45 39 49 51 56 49 46 40 37 27 30 30 31 33 33 34 36 35 33 28 21 18 20 21 24 22 20 17 18 19 20 20 20 21 21 21 19
35 41 47 36 22 27 31 47 35 36 47 49 45 50 41 28 29 32 33 33 35 36 38 39 38 36 33 28 21 20 24 27 24 21 18 18 18 18 19 20 20 21 22 20
35 39 36 25 25 28 41 40 33 32 33 37 42 36 31 33 33 31 33 34 36 38 41 41 40 37 36 30 25 21 19 20 20 22 21 17 18 18 18 19 19 19 20 21
38 31 42 24 29 35 32 36 35 35 34 37 36 37 37 35 33 31 32 33 33 36 37 39 39 38 37 34 33 25 21 20 20 20 21 17 18 18 18 19 19 20 25 25
26 30 22 25 30 30 32 36 42 37 33 34 36 36 35 34 32 28 27 30 30 30 28 26 31 32 36 38 30 25 23 20 20 21 19 16 17 20 19 20 21 21 24 27
21 23 24 26 29 31 32 39 39 34 30 30 33 32 33 30 29 25 24 25 24 23 21 21 22 22 28 28 27 26 25 23 21 21 19 17 15 17 18 17 18 20 21 21
18 24 26 23 24 25 30 34 29 28 27 28 29 30 29 27 25 22 20 20 18 18 17 18 19 20 23 27 30 30 28 26 23 21 20 18 14 16 19 21 21 21 22 21
18 22 22 22 25 23 25 24 21 23 25 26 26 27 25 25 22 19 18 17 16 16 16 17 18 18 20 24 28 31 29 28 25 22 20 18 16 15 18 16 19 20 21 23
8 13 12 21 21 20 21 19 20 22 21 25 24 23 23 23 19 17 16 16 16 16 16 16 14 15 16 19 23 25 28 28 27 25 21 20 18 16 16 20 20 23 24 27
21 20 22 23 20 20 20 18 18 18 19 20 20 21 21 19 18 16 17 17 16 15 15 15 15 17 19 17 17 19 20 24 25 28 22 20 18 17 15 14 15 18 20 21
27 25 21 23 22 20 19 18 18 15 15 19 15 17 18 16 16 16 17 18 18 16 15 15 15 15 16 17 17 16 13 15 22 20 18 17 17 15 16 17 18 19 19 20
15 18 21 26 25 23 19 18 17 17 17 17 14 15 16 16 17 18 17 18 19 18 19 19 18 18 18 18 18 17 18 17 17 17 21 21 20 15 23 27 24 24 28 37
25 19 20 21 24 23 21 17 17 18 17 16 16 17 15 16 16 16 18 19 19 19 19 20 21 21 20 19 19 21 22 21 20 21 20 25 23 20 25 34 36 27 22 15
22 25 28 26 23 21 20 20 17 17 16 16 13 12 13 17 18 18 18 19 20 20 21 22 23 23 21 20 20 20 24 21 23 18 22 20 18 19 20 22 16 14 9 11
19 25 28 28 26 22 22 21 20 18 18 17 16 15 15 17 19 19 19 20 21 23 25 26 26 24 23 23 22 22 19 22 23 22 20 20 16 12 11 12 10 10 11 11
19 18 25 26 26 26 22 22 22 21 20 18 17 17 16 17 17 19 20 21 22 26 26 27 27 26 25 26 26 25 25 24 24 28 20 17 17 15 14 15 15 14 14 12
20 20 21 26 25 25 24 23 21 19 20 18 19 18 18 17 17 19 20 20 23 23 23 25 25 26 26 25 24 24 24 17 17 23 22 19 18 16 16 15 16 18 18 16
22 20 20 23 24 23 24 23 23 21 19 20 19 17 17 18 18 19 20 21 22 21 21 21 22 21 20 20 21 23 26 25 25 24 24 24 25 23 22 20 19 17 19 19
20 21 21 22 23 23 23 23 21 21 20 20 19 18 17 18 19 19 19 21 21 21 19 20 21 20 19 18 18 18 19 19 20 21 21 22 21 21 20 20 19 16 15 17
19 20 20 19 21 21 23 22 21 20 20 20 20 18 17 19 16 19 17 19 19 19 19 19 20 20 19 18 17 17 17 17 18 18 19 18 19 19 20 20 18 18 16 16
16 20 20 19 20 21 21 22 20 20 19 20 19 18 17 18 18 19 18 16 16 17 18 19 20 20 20 19 19 18 17 16 16 15 15 16 17 17 17 18 19 19 19 18
12 16 15 19 21 21 21 22 22 20 20 20 20 18 18 16 17 18 18 18 17 17 18 19 19 18 19 18 18 19 18 17 17 17 16 15 15 16 17 17 18 18 18 18
13 18 18 19 20 20 21 21 21 20 20 21 20 19 17 17 17 16 18 18 17 17 17 18 19 18 18 19 19 19 18 19 18 17 16 16 17 16 17 17 17 17 18 18
Wind_Direction
266 267 267 261 254 247 246 246 243 240 244 247 253 261 264 265 256 250 252 250 244 244 235 236 236 233 221 210 198 194 200 217 211 215 223 231 228 227 219 215 218 241 253 256
263 265 264 259 256 252 249 246 248 244 246 251 268 254 268 260 259 254 252 256 253 248 250 246 243 239 223 212 200 193 202 201 222 226 226 222 225 227 227 226 226 238 240 245
260 262 262 255 252 254 251 250 247 242 242 251 251 255 263 261 258 259 254 258 256 255 253 252 246 246 240 220 216 205 197 224 224 224 219 222 225 229 227 227 235 235 243 246
263 263 255 257 259 260 254 252 250 247 245 248 251 255 275 271 258 262 261 260 261 259 256 254 254 251 249 240 213 210 204 206 213 221 219 222 223 222 229 236 235 240 245 249
260 257 260 257 262 263 258 248 254 250 245 244 249 254 265 272 260 261 264 263 261 260 258 255 254 253 253 242 229 217 211 199 200 206 215 219 217 219 228 237 242 241 249 246
262 255 250 257 270 273 263 247 259 266 244 246 246 248 252 273 267 264 266 266 265 263 260 255 253 252 251 248 234 215 205 198 198 199 213 212 216 221 228 238 238 245 250 250
255 254 258 277 279 275 248 246 266 267 258 252 247 262 263 267 266 270 269 270 271 266 259 256 253 251 249 247 236 218 226 229 216 202 201 224 234 236 236 237 244 243 248 253
236 260 253 283 273 259 261 263 267 266 261 258 259 260 260 261 266 274 273 275 274 270 263 258 254 250 247 246 247 239 232 231 221 217 201 215 233 238 238 242 244 252 255 259
249 247 286 279 272 273 272 266 260 260 260 262 256 256 257 259 263 272 281 279 276 273 271 268 260 252 247 247 242 234 233 232 228 225 218 220 226 240 240 244 247 247 256 258
226 222 239 242 254 267 277 260 263 258 263 263 255 254 251 257 263 271 282 282 280 278 274 273 275 266 253 242 238 235 237 235 234 223 220 215 216 236 238 237 242 250 250 256
210 246 265 255 256 253 263 265 262 258 261 257 252 248 250 255 260 266 280 286 287 284 282 281 278 271 265 256 242 239 238 235 233 225 217 211 212 233 239 248 249 248 254 256
231 271 257 249 263 276 266 258 257 257 249 247 246 246 249 252 260 265 279 288 292 293 292 286 283 278 274 263 254 241 236 232 231 224 216 212 218 239 253 246 251 254 258 260
142 225 205 277 287 277 272 272 251 245 252 240 242 246 249 251 259 267 280 286 287 291 293 289 292 279 282 268 259 245 237 235 233 230 220 221 222 226 233 252 256 255 259 261
334 315 341 321 287 292 295 283 272 261 252 246 246 246 253 252 259 270 276 282 282 289 296 291 285 276 273 278 270 257 244 239 234 240 225 229 233 233 235 231 239 254 263 268
10 4 324 342 326 311 307 296 277 270 259 247 255 258 260 265 263 270 278 282 278 286 293 291 286 284 282 281 277 266 257 247 240 236 236 228 235 238 248 246 249 257 265 273
319 326 337 357 350 339 324 309 292 276 272 268 260 266 267 270 275 277 282 284 278 281 288 289 286 288 286 281 275 271 259 256 256 246 245 243 244 238 256 261 263 266 269 268
39 324 328 331 348 343 340 323 317 309 292 280 285 270 272 276 279 285 288 287 282 284 289 288 285 286 283 283 279 271 267 266 266 258 251 254 258 261 269 275 271 287 289 295
48 35 21 343 333 334 334 337 327 310 304 309 296 299 287 289 290 282 291 293 290 287 289 287 290 286 285 287 287 279 272 275 275 280 272 279 279 280 283 272 279 281 272 268
48 18 1 355 343 328 338 339 344 335 327 316 308 301 308 300 296 288 291 296 295 292 293 288 288 285 286 287 286 279 286 283 280 278 279 283 287 293 283 275 276 283 278 275
33 38 5 355 350 348 329 332 336 335 326 316 315 314 309 306 308 309 304 295 299 298 300 298 288 285 288 289 284 278 275 275 275 273 280 284 289 291 292 291 291 289 288 281
19 18 16 348 342 339 343 351 330 326 328 315 317 316 320 321 321 322 321 316 313 298 311 311 304 296 291 290 288 283 284 283 280 277 279 282 284 289 293 295 292 290 286 285
1 8 9 351 338 338 336 337 343 339 332 333 327 321 319 323 326 330 331 330 330 331 327 319 319 315 308 307 300 290 280 281 285 284 283 282 280 280 280 283 286 288 289 288
354 355 353 343 340 336 333 331 338 333 333 332 331 336 326 327 334 327 323 332 336 338 339 340 341 336 330 320 314 310 307 303 299 293 291 290 289 291 291 290 288 290 288 292
347 351 353 351 342 340 331 327 331 335 332 337 336 337 344 327 337 336 346 340 340 348 352 352 352 354 351 342 336 331 326 317 308 300 296 294 293 293 293 294 293 293 293 293
354 349 345 345 343 339 336 332 329 331 330 336 340 337 346 342 340 337 343 347 344 344 347 350 354 360 359 358 353 347 345 339 332 327 320 309 302 300 300 297 295 295 295 297
359 358 356 341 333 327 331 329 329 331 324 324 329 336 334 343 345 342 344 344 345 340 343 347 346 348 353 356 358 360 357 349 343 338 331 325 320 313 305 302 301 302 301 300
7 340 345 341 328 325 332 335 325 331 329 312 322 330 327 333 336 341 336 341 341 342 345 346 346 348 349 347 347 349 351 356 358 351 342 335 329 321 317 313 311 308 307 302